Previsão horária em Senozhatki

Hoje, 29 Novembro, Domingo

Tempo Temperatura Precipitação Vento Pressão Humidade
00:00 0°C° 0.1 mm 3 m/s 749 mmHg 96%
01:00 0°C° 0.1 mm 3 m/s 749 mmHg 96%
02:00 0°C° 0.1 mm 3 m/s 748 mmHg 96%
03:00 -1°C° 0.1 mm 3 m/s 748 mmHg 96%
04:00 -1°C° 0.1 mm 3 m/s 748 mmHg 95%
05:00 -1°C° 0.1 mm 3 m/s 748 mmHg 95%
06:00 -1°C° 0.3 mm 3 m/s 748 mmHg 95%
07:00 -1°C° 0.3 mm 3 m/s 748 mmHg 96%
08:00 -1°C° 0.3 mm 3 m/s 748 mmHg 96%
09:00 -1°C° 0.3 mm 3 m/s 748 mmHg 96%
10:00 -1°C° 0.3 mm 3 m/s 748 mmHg 95%
11:00 -1°C° 0.3 mm 2 m/s 748 mmHg 94%
12:00 -1°C° 0.2 mm 2 m/s 748 mmHg 94%
13:00 +1°C° 0.2 mm 1 m/s 748 mmHg 95%
14:00 +2°C° 0.2 mm 1 m/s 748 mmHg 95%
15:00 +1°C° 0 mm 1 m/s 748 mmHg 96%
16:00 +1°C° 0 mm 1 m/s 748 mmHg 96%
17:00 +1°C° 0 mm 1 m/s 748 mmHg 97%
18:00 +1°C° 0 mm 1 m/s 748 mmHg 96%
19:00 0°C° 0 mm 1 m/s 749 mmHg 96%
20:00 -2°C° 0 mm 2 m/s 749 mmHg 95%
21:00 0°C° 0.1 mm 1 m/s 749 mmHg 95%
22:00 0°C° 0.1 mm 1 m/s 749 mmHg 96%
23:00 0°C° 0.1 mm 1 m/s 749 mmHg 96%

Amanhã, 30 Novembro, Segunda-feira

Tempo Temperatura Precipitação Vento Pressão Humidade
00:00 0°C° 0.1 mm 1 m/s 749 mmHg 96%
01:00 0°C° 0.1 mm 1 m/s 749 mmHg 97%
02:00 0°C° 0.1 mm 1 m/s 750 mmHg 97%
03:00 0°C° 0.1 mm 1 m/s 750 mmHg 97%
04:00 0°C° 0.1 mm 1 m/s 749 mmHg 97%
05:00 0°C° 0.1 mm 1 m/s 749 mmHg 97%
06:00 -1°C° 0 mm 1 m/s 750 mmHg 97%
07:00 -3°C° 0 mm 2 m/s 750 mmHg 97%
08:00 -3°C° 0 mm 2 m/s 751 mmHg 97%
09:00 -3°C° 0 mm 2 m/s 751 mmHg 94%
10:00 -2°C° 0 mm 2 m/s 751 mmHg 92%
11:00 -1°C° 0 mm 3 m/s 751 mmHg 89%
12:00 -1°C° 0 mm 3 m/s 751 mmHg 88%
13:00 -1°C° 0 mm 3 m/s 751 mmHg 87%
14:00 -1°C° 0 mm 3 m/s 752 mmHg 85%
15:00 -1°C° 0 mm 3 m/s 752 mmHg 85%
16:00 -2°C° 0 mm 3 m/s 752 mmHg 84%
17:00 -2°C° 0 mm 3 m/s 752 mmHg 84%
18:00 -2°C° 0 mm 2 m/s 752 mmHg 86%
19:00 -2°C° 0 mm 2 m/s 753 mmHg 89%
20:00 -3°C° 0 mm 2 m/s 753 mmHg 91%
21:00 -3°C° 0 mm 2 m/s 753 mmHg 93%
22:00 -3°C° 0 mm 2 m/s 753 mmHg 94%
23:00 -3°C° 0 mm 2 m/s 753 mmHg 96%

Depois de amanhã, 1 Dezembro, Terça-feira

Tempo Temperatura Precipitação Vento Pressão Humidade
00:00 -3°C° 0 mm 2 m/s 753 mmHg 95%
01:00 -4°C° 0 mm 2 m/s 754 mmHg 94%
02:00 -4°C° 0 mm 2 m/s 754 mmHg 94%
03:00 -4°C° 0 mm 2 m/s 754 mmHg 93%
04:00 -4°C° 0 mm 2 m/s 754 mmHg 93%
05:00 -4°C° 0 mm 2 m/s 754 mmHg 92%
06:00 -4°C° 0 mm 2 m/s 754 mmHg 92%
07:00 -4°C° 0 mm 2 m/s 755 mmHg 92%
08:00 -4°C° 0 mm 2 m/s 755 mmHg 92%
09:00 -4°C° 0 mm 2 m/s 755 mmHg 89%
10:00 -3°C° 0 mm 2 m/s 755 mmHg 86%
11:00 -2°C° 0 mm 2 m/s 755 mmHg 83%
12:00 0°C° 0 mm 1 m/s 756 mmHg 81%
13:00 0°C° 0 mm 1 m/s 756 mmHg 80%
14:00 0°C° 0 mm 1 m/s 756 mmHg 79%
15:00 0°C° 0 mm 1 m/s 756 mmHg 81%
16:00 -1°C° 0 mm 1 m/s 756 mmHg 84%
17:00 -2°C° 0 mm 1 m/s 756 mmHg 87%
18:00 -2°C° 0 mm 1 m/s 756 mmHg 88%
19:00 -2°C° 0 mm 1 m/s 757 mmHg 89%
20:00 -4°C° 0 mm 2 m/s 757 mmHg 91%
21:00 -4°C° 0 mm 2 m/s 757 mmHg 91%
22:00 -5°C° 0 mm 2 m/s 757 mmHg 92%
23:00 -5°C° 0 mm 2 m/s 757 mmHg 93%

2 Dezembro, Quarta-feira

Tempo Temperatura Precipitação Vento Pressão Humidade
00:00 -5°C° 0 mm 2 m/s 757 mmHg 93%
01:00 -3°C° 0 mm 1 m/s 757 mmHg 93%
02:00 -3°C° 0 mm 1 m/s 757 mmHg 94%
03:00 -5°C° 0 mm 2 m/s 757 mmHg 93%
04:00 -5°C° 0 mm 2 m/s 757 mmHg 93%
05:00 -5°C° 0 mm 2 m/s 757 mmHg 93%
06:00 -5°C° 0 mm 2 m/s 757 mmHg 93%
07:00 -5°C° 0 mm 2 m/s 756 mmHg 93%
08:00 -6°C° 0 mm 2 m/s 756 mmHg 93%
09:00 -5°C° 0 mm 2 m/s 756 mmHg 92%
10:00 -4°C° 0 mm 2 m/s 756 mmHg 90%
11:00 -3°C° 0 mm 2 m/s 756 mmHg 89%
12:00 -3°C° 0 mm 2 m/s 756 mmHg 90%
13:00 -2°C° 0 mm 2 m/s 756 mmHg 91%
14:00 -2°C° 0 mm 2 m/s 755 mmHg 92%
15:00 -2°C° 0 mm 2 m/s 755 mmHg 93%
16:00 -2°C° 0 mm 2 m/s 755 mmHg 94%
17:00 -2°C° 0 mm 2 m/s 755 mmHg 96%
18:00 -2°C° 0 mm 2 m/s 755 mmHg 95%
19:00 -2°C° 0 mm 2 m/s 755 mmHg 93%
20:00 -2°C° 0 mm 2 m/s 755 mmHg 92%
21:00 -3°C° 0 mm 2 m/s 755 mmHg 91%
22:00 -3°C° 0 mm 2 m/s 754 mmHg 90%
23:00 -3°C° 0 mm 2 m/s 754 mmHg 89%

3 Dezembro, Quinta-feira

Tempo Temperatura Precipitação Vento Pressão Humidade
00:00 -3°C° 0 mm 2 m/s 754 mmHg 90%
01:00 -3°C° 0 mm 2 m/s 754 mmHg 92%
02:00 -3°C° 0 mm 2 m/s 754 mmHg 94%
03:00 -4°C° 0 mm 2 m/s 754 mmHg 94%
04:00 -4°C° 0 mm 2 m/s 753 mmHg 95%
05:00 -4°C° 0 mm 2 m/s 753 mmHg 96%
06:00 -4°C° 0 mm 2 m/s 753 mmHg 96%
07:00 -4°C° 0 mm 2 m/s 753 mmHg 96%
08:00 -4°C° 0 mm 2 m/s 753 mmHg 95%
09:00 -3°C° 0 mm 2 m/s 753 mmHg 94%
10:00 -4°C° 0 mm 3 m/s 753 mmHg 92%
11:00 -4°C° 0 mm 3 m/s 753 mmHg 91%
12:00 -2°C° 0 mm 3 m/s 753 mmHg 91%
13:00 -2°C° 0 mm 3 m/s 752 mmHg 91%
14:00 -2°C° 0 mm 3 m/s 752 mmHg 91%
15:00 -2°C° 0 mm 3 m/s 752 mmHg 92%
16:00 -2°C° 0 mm 3 m/s 752 mmHg 92%
17:00 -2°C° 0 mm 3 m/s 752 mmHg 93%
18:00 -2°C° 0 mm 3 m/s 752 mmHg 93%
19:00 -2°C° 0 mm 3 m/s 752 mmHg 93%
20:00 -2°C° 0 mm 3 m/s 751 mmHg 93%
21:00 -3°C° 0.1 mm 4 m/s 751 mmHg 93%
22:00 -3°C° 0.1 mm 4 m/s 751 mmHg 94%
23:00 -3°C° 0.1 mm 4 m/s 751 mmHg 94%

4 Dezembro, Sexta-feira

Tempo Temperatura Precipitação Vento Pressão Humidade
00:00 -3°C° 0.1 mm 4 m/s 751 mmHg 94%
01:00 -3°C° 0.1 mm 4 m/s 751 mmHg 94%
02:00 -3°C° 0.1 mm 4 m/s 751 mmHg 94%
03:00 -3°C° 0 mm 4 m/s 751 mmHg 93%
04:00 -2°C° 0 mm 5 m/s 750 mmHg 93%
05:00 -2°C° 0 mm 5 m/s 750 mmHg 93%
06:00 -2°C° 0 mm 5 m/s 750 mmHg 92%
07:00 -2°C° 0 mm 5 m/s 750 mmHg 92%
08:00 -2°C° 0 mm 5 m/s 750 mmHg 91%
09:00 -2°C° 0 mm 5 m/s 750 mmHg 92%
10:00 -1°C° 0 mm 5 m/s 750 mmHg 92%
11:00 -1°C° 0 mm 5 m/s 750 mmHg 93%
12:00 -1°C° 0 mm 5 m/s 750 mmHg 93%
13:00 -1°C° 0 mm 5 m/s 749 mmHg 93%
14:00 -1°C° 0 mm 5 m/s 749 mmHg 93%
15:00 -1°C° 0 mm 5 m/s 749 mmHg 94%
16:00 -1°C° 0 mm 5 m/s 749 mmHg 94%
17:00 -1°C° 0 mm 5 m/s 749 mmHg 95%
18:00 -1°C° 0 mm 5 m/s 749 mmHg 94%
19:00 -2°C° 0 mm 6 m/s 749 mmHg 93%
20:00 -2°C° 0 mm 6 m/s 749 mmHg 91%
21:00 -2°C° 0 mm 6 m/s 749 mmHg 90%
22:00 -3°C° 0 mm 6 m/s 749 mmHg 90%
23:00 -3°C° 0 mm 6 m/s 749 mmHg 89%
Mostrar mais

Necessitamos do seu Consentimento

A Meteoprog e os seus Fornecedores de Serviços podem armazenar e aceder a dados pessoais como cookies, identificadores do dispositivo ou outras tecnologias semelhantes existentes no seu dispositivo e processar estes dados para personalizar conteúdos e anúncios, assim como funcionalidades nas redes sociais e análise de tráfego.

  • Armazenar e/ou aceder a informações no seu dispositivo

    Os cookies, identificadores do dispositivo ou outras informações podem ser armazenados ou acedidos no seu dispositivo, para os fins acima indicados.

  • Anúncios e conteúdos personalizados, medição de anúncios e conteúdos, dados sobre o público-alvo e desenvolvimento de produtos

    Os anúncios e os conteúdos podem ser personalizados com base num perfil. Podem ser adicionados dados adicionais para uma maior personalização dos anúncios e dos conteúdos. A eficácia dos anúncios e dos conteúdos pode ser medida. Podem ser obtidas informações sobre o público que visualizou os anúncios e os conteúdos. Estes dados podem ser usados para desenvolver ou melhorar sistemas, softwares ou a experiência do utilizador.

Ao clicar em "Eu concordo”, permitirá o uso de cookies, identificadores do dispositivo e web beacons mencionados ou outras tecnologias semelhantes. As configurações do navegador do seu dispositivo podem ser alteradas.

Para certos fins, podem ser invocados interesses legítimos ao invés de consentimento. Pode ler mais informação sobre este assunto na nossa Política de Privacidade e Cookies.